星链-4132 (STARLINK-4132 )
导读
STARLINK-4132是美国SpaceX公司星链星座中的一颗卫星,于2022年7月24日发射升空。星链计划旨在构建全球卫星互联网星座,为全球偏远地区、海洋等网络覆盖薄弱区域提供高速互联网服务。该卫星入轨后,将加入庞大的星链卫星群组,进一步拓展星座覆盖范围,提升全球网络服务的能力与稳定性。
Basic Information
目录编号:
53252
目录名称:
STARLINK-4132
国际标识:
2022-086L
轨道中心:
EARTH
卫星名称:
星链-4132
卫星全名:
星链-4132 (STARLINK-4132 )
卫星状态:
在轨 (已飞行1504 天)
发射日期:
2022-07-24 UTC
国别 :
美国
(US)
星等 :
--
Orbit Information
| 数据来源 | 国际轨道数据 | AOE轨道数据 |
| 星历时间 | 2026-09-05T14:46:40+0800 6小时前 查看轨道信息 | 2026-08-30T23:00:00+0800 5天前 查看轨道信息 |
| 半长轴 | 6848.889km | 6848.883km |
| 偏心率 | 0.0001075 | 0.0001798 |
| 轨道倾角 | 53.159° | 53.158° |
| 近地点辐角 | 90.048° | 73.240° |
| 升交点赤经 | 96.060° | 122.403° |
| 平近点角 | 270.065° | 33.845° |
| 近地点 | 470.015km | 469.514km |
| 远地点 | 471.489km | 471.978km |
| 周期 | 94.013分钟 | 94.013分钟 |
| 每日圈数 | 15.316962 | 15.316981 |
Detailed Information
固有亮度:
5
最大亮度:
2.5
卫星平台:
Starlink v1.5
覆盖范围:
全球
运营商:
太空探索技术公司
运营商所在国:
美国
制造商(研发单位):
太空探索技术公司
制造商所在国:
美国
使用方式:
暂无
Satellite Introduction
星链(Starlink)计划是由太空探索技术公司(SpaceX)提出的一个巨型低轨卫星互联网星座项目,计划在2019年至2024年间在太空搭建由约1.2万颗卫星组成的“星链”网络,其中1584颗将部署在地球上空550千米处的近地轨道,并从2020年开始工作。该卫星仍在工作。
2D Orbit Map
3D Orbit Map
Orbit Altitude Analysis Chart
Orbit Inclination Analysis Chart
Orbit Comprehensive Analysis Chart
View Comprehensive ChartConjunction Data List
| Event ID | Objects | TCA | Miss Dist (km) | Collision Risk Probability | Collision Risk Index (CRI) | Action |
|---|---|---|---|---|---|---|
| CDM_260906-110604-748605-325223 |
CELESTIS 17/SHERPA-FX1
(47486)
STARLINK-4132
(53252) | 2026-09-06T 11:06:41+0000 |
1.555 km
极远距离 | 5.910807E-6 低风险 | 0.5 | |
| CDM_260907-040504-117305-325224 |
DAMPE
(41173)
STARLINK-4132
(53252) | 2026-09-07T 04:05:49+0000 |
1.869 km
极远距离 | 3.41217E-6 低风险 | 0.46 | |
| CDM_260905-131104-742405-325224 |
OBJECT M
(47424)
STARLINK-4132
(53252) | 2026-09-05T 13:11:02+0000 |
2.212 km
极远距离 | 2.229571E-6 低风险 | 0.42 | |
| CDM_260905-183305-325206-545521 |
STARLINK-4132
(53252)
STARLINK-34728
(65455) | 2026-09-05T 18:33:06+0000 |
2.333 km
极远距离 | 1.145758E-6 低风险 | 0.36 | |
| CDM_260908-025002-058005-325221 |
HST
(20580)
STARLINK-4132
(53252) | 2026-09-08T 02:50:18+0000 |
2.917 km
极远距离 | 1.089051E-6 低风险 | 0.36 | |
| CDM_260905-043005-325206-942921 |
STARLINK-4132
(53252)
STARLINK-37857
(69429) | 2026-09-05T 04:30:27+0000 |
2.995 km
极远距离 | 8.049508E-7 极低风险 | 0.33 |

